[[{"header":{"parameterUnit":"m.s-1","parameterCategory":1,"la1":30.2991,"la2":30.254,"lo1":-89.0895,"lo2":-89.0444,"dy":0.0017,"dx":0.0017,"nx":28,"ny":28,"refTime":"2025-01-15T09:00:00:Z","depth":0,"parameterNumber":2,"parameterNumberName":"U-component_of_WINDS"},"data":[0,0,0,0,0,0,0,0,0,0,0,0,0,0,0,0,0,0,0,0,0,0,0,0,0,0,0,0,0,0,0,0,0,0,0,0,0,0,0,0,0,0,0,0,0,0,0,0,0,0,0,0,0,0,0,0,0,0,2.1246,2.1246,0,2.1265,2.1265,2.1265,2.1209,2.1208,2.1206,2.1204,2.1225,2.1227,2.1229,0,0,0,0,0,0,0,0,0,0,0,0,0,2.116,2.1161,2.1246,2.1246,2.1246,2.1265,2.1265,2.1266,2.121,2.1208,2.1206,2.1204,2.1224,2.1227,2.123,0,0,0,0,0,0,0,0,0,0,0,0,0,2.119,2.1162,2.1245,2.122,2.1218,2.1265,2.1265,2.1266,2.121,2.1208,2.1205,2.1203,2.1224,2.1227,2.123,2.1302,0,0,2.124,2.1241,0,0,0,0,0,0,0,0,2.1188,2.1193,2.1224,2.1222,2.122,2.1232,2.1242,2.1278,2.1211,2.1213,2.1204,2.1201,2.123,2.1232,2.1242,2.1303,2.1304,2.124,2.1242,2.1243,2.1244,0,0,0,0,0,0,0,2.1186,2.1192,2.1253,2.1224,2.1222,2.1208,2.1209,2.1249,2.1236,2.1213,2.1209,2.1212,2.1228,2.1239,2.1242,2.1304,2.124,2.1243,2.1245,2.1246,2.1423,2.1425,0,0,0,0,0,0,2.1187,2.1191,2.1253,2.1254,2.1197,2.1212,2.1213,2.1231,2.1235,2.1233,2.1214,2.1209,2.1234,2.1238,2.1242,2.1325,2.1243,2.1246,2.1248,2.142,2.1423,2.1426,0,0,0,0,0,0,2.1186,2.1193,2.1252,2.1221,2.1227,2.1216,2.1236,2.1233,2.1243,2.1236,2.1233,2.1227,2.1232,2.1238,2.1287,2.1325,2.1248,2.1251,2.1417,2.1421,2.1425,2.1492,0,0,0,0,0,0,2.1183,2.1193,2.1221,2.1222,2.1229,2.1297,2.1239,2.1235,2.1249,2.1242,2.1248,2.1246,2.1231,2.1282,2.129,2.1328,2.1253,2.1413,2.1419,2.1424,2.1486,2.1498,2.1507,0,0,0,0,0,2.1181,2.1239,2.1222,2.123,2.1263,2.1299,2.1303,2.1284,2.1252,2.1279,2.1274,2.1246,2.132,2.1288,2.1296,2.1335,2.1411,2.1417,2.1423,2.1481,2.1495,2.1507,0,0,0,0,0,0,2.1243,2.1239,2.122,2.1281,2.1291,2.1289,2.1323,2.13,2.1319,2.1312,2.1288,2.129,2.1343,2.1344,2.1309,2.1404,2.136,2.1368,2.1401,2.1414,2.1425,2.1423,2.1256,0,0,0,0,0,2.1264,2.1293,2.1288,2.1342,2.1348,2.1335,2.135,2.1334,2.1343,2.1347,2.1346,2.1356,2.1381,2.1398,2.1421,2.1486,2.1486,2.1517,2.1528,2.1537,2.1544,2.1576,2.159,2.1447,2.1447,2.1447,0,0,2.1307,2.1309,2.1329,2.1355,2.136,2.139,2.1339,2.1373,2.1395,2.1352,2.1398,2.1398,2.1407,2.1464,2.1489,2.1467,2.1583,2.1545,2.1552,2.1554,2.1584,2.1598,2.161,2.1451,2.145,2.1449,0,0,2.1401,2.1406,2.1451,2.1457,2.1466,2.1456,2.1467,2.1469,2.1467,2.1512,2.148,2.1506,2.155,2.1558,2.1567,2.1663,2.1637,2.1671,2.1727,2.1759,2.177,2.178,2.1812,2.1824,2.1678,2.1679,2.1679,0,2.1454,2.1498,2.1477,2.1513,2.1525,2.1487,2.1531,2.1538,2.1554,2.1563,2.1538,2.1591,2.1595,2.1652,2.1676,2.1685,2.1696,2.167,2.177,2.178,2.1789,2.1819,2.1831,2.1682,2.1682,2.1682,2.1681,0,2.1562,2.1593,2.1628,2.1643,2.1659,2.1699,2.1683,2.1702,2.1685,2.1678,2.1724,2.1727,2.1749,2.1762,2.1746,2.1817,2.1802,2.1774,2.1729,2.1806,2.1834,2.1846,2.1688,2.1687,2.1686,2.1685,0,0,2.1696,2.1697,2.1711,2.1716,2.1722,2.1746,2.1784,2.1805,2.182,2.1833,2.1863,2.1901,2.1874,2.1885,2.187,2.1898,2.1971,2.1866,2.1866,2.1884,2.2047,2.2066,2.208,2.1955,2.1957,2.1958,2.2045,0,2.1787,2.1851,2.1832,2.1897,2.1924,2.1888,2.1921,2.1928,2.1923,2.1945,2.1939,2.1965,2.1929,2.1935,2.1962,2.1957,2.2003,2.1951,2.1981,2.1983,2.1978,2.2095,2.2116,2.2198,2.2056,2.2058,2.2059,0,2.1901,2.1917,2.1984,2.1983,2.1994,2.2024,2.204,2.2063,2.207,2.2064,2.2075,2.2054,2.209,2.2046,2.2095,2.206,2.2072,2.2071,2.2074,2.2074,2.2025,2.2097,2.2224,2.2235,2.2077,2.2076,2.2074,0,2.199,2.2027,2.2072,2.2078,2.2079,2.2101,2.2103,2.2107,2.212,2.2135,2.2143,2.2162,2.2172,2.2187,2.2171,2.2141,2.2222,2.2177,2.2217,2.2218,2.2235,2.2234,2.2363,2.2246,2.2246,2.2246,2.2245,0,2.2092,2.2134,2.2111,2.2138,2.2183,2.2161,2.2207,2.2205,2.2209,2.2234,2.2205,2.223,2.2208,2.223,2.2218,2.226,2.2265,2.226,2.2256,2.2262,2.2262,2.2268,2.2261,2.2249,2.2248,2.2247,2.2247,0,2.2198,2.2184,2.223,2.2227,2.2227,2.2261,2.2258,2.2283,2.2275,2.2308,2.2314,2.2302,2.2327,2.2312,2.2338,2.233,2.2383,2.2373,2.2381,2.2377,2.2417,2.2413,2.2553,2.257,2.2444,2.2445,2.2446,0,2.2263,2.2294,2.2294,2.2309,2.2312,2.2337,2.2349,2.2329,2.2343,2.2352,2.2376,2.2398,2.2414,2.2456,2.2449,2.2468,2.2457,2.2505,2.2459,2.2463,2.2455,2.2452,2.2454,2.2513,2.2515,2.2516,2.2517,0,2.238,2.2371,2.239,2.2407,2.2423,2.2435,2.2445,2.2459,2.2438,2.2455,2.248,2.2493,2.2518,2.254,2.2556,2.2558,2.2534,2.2531,2.2541,2.2546,2.2549,2.2546,2.2403,2.2528,2.2527,2.2526,2.2525,2.2525,2.2466,2.2491,2.2494,2.2516,2.2521,2.2531,2.2553,2.2547,2.2567,2.2586,2.2573,2.2601,2.2606,2.2625,2.2629,2.2651,2.2632,2.2647,2.265,2.2654,2.2658,2.2547,2.2654,2.2654,2.2654,2.2654,2.2653,0,2.2579,2.2579,2.2599,2.2613,2.263,2.2606,2.2615,2.2631,2.2656,2.2663,2.2679,2.2706,2.2727,2.2722,2.274,2.2759,2.2748,2.2764,2.2761,2.2762,2.2675,2.2664,2.2772,2.2772,2.2772,2.2772,2.2772,2.2772,2.264,2.268,2.2671,2.2714,2.2713,2.274,2.2747,2.2756,2.276,2.2792,2.2809,2.2805,2.2806,2.2824,2.2842,2.284,2.2847,2.2867,2.2861,2.278,2.2768,2.2757,2.2746,2.2869,2.2869,2.2945,2.2945,2.2946]},{"header":{"parameterUnit":"m.s-1","parameterCategory":1,"la1":30.2991,"la2":30.254,"lo1":-89.0895,"lo2":-89.0444,"dy":0.0017,"dx":0.0017,"nx":28,"ny":28,"refTime":"2025-01-15T09:00:00:Z","depth":0,"parameterNumber":3,"parameterNumberName":"V-component_of_WINDS"},"data":[0,0,0,0,0,0,0,0,0,0,0,0,0,0,0,0,0,0,0,0,0,0,0,0,0,0,0,0,0,0,0,0,0,0,0,0,0,0,0,0,0,0,0,0,0,0,0,0,0,0,0,0,0,0,0,0,0,0,1.7094,1.7093,0,1.7069,1.7069,1.7068,1.7042,1.7041,1.7041,1.7041,1.7014,1.7013,1.7013,0,0,0,0,0,0,0,0,0,0,0,0,0,1.7115,1.7115,1.7094,1.7093,1.7093,1.7069,1.7069,1.7068,1.7042,1.7041,1.7041,1.704,1.7014,1.7013,1.7013,0,0,0,0,0,0,0,0,0,0,0,0,0,1.71,1.7115,1.7094,1.7077,1.7075,1.7069,1.7069,1.7068,1.7042,1.7041,1.7041,1.704,1.7014,1.7013,1.7013,1.7021,0,0,1.7011,1.7011,0,0,0,0,0,0,0,0,1.71,1.7099,1.708,1.7078,1.7076,1.7058,1.7066,1.7052,1.7042,1.7054,1.7041,1.704,1.7029,1.7027,1.7024,1.702,1.7018,1.7011,1.7011,1.7011,1.701,0,0,0,0,0,0,0,1.7102,1.71,1.7084,1.7079,1.7077,1.707,1.7067,1.7063,1.7045,1.7053,1.7051,1.7049,1.7028,1.7024,1.7023,1.7018,1.7011,1.7011,1.701,1.701,1.7016,1.7017,0,0,0,0,0,0,1.7105,1.7101,1.7084,1.7083,1.7087,1.707,1.7067,1.7064,1.7045,1.7042,1.7049,1.7048,1.7025,1.7023,1.7022,1.7028,1.7011,1.701,1.701,1.7016,1.7016,1.7017,0,0,0,0,0,0,1.7106,1.7104,1.7085,1.7091,1.7088,1.707,1.7067,1.7064,1.706,1.7042,1.7038,1.7049,1.7025,1.7022,1.7021,1.7027,1.701,1.7009,1.7015,1.7016,1.7017,1.7041,0,0,0,0,0,0,1.7107,1.7105,1.7108,1.7092,1.7088,1.7086,1.7068,1.7064,1.706,1.7057,1.7041,1.7038,1.7024,1.7022,1.702,1.7025,1.7009,1.7015,1.7015,1.7016,1.704,1.7043,1.7045,0,0,0,0,0,1.7108,1.7116,1.7109,1.7107,1.7092,1.7086,1.7084,1.7069,1.706,1.7063,1.7051,1.7038,1.7026,1.7022,1.702,1.7025,1.7014,1.7015,1.7016,1.7039,1.7042,1.7045,0,0,0,0,0,0,1.7134,1.7114,1.7105,1.7109,1.71,1.7082,1.7085,1.7074,1.7066,1.7064,1.7045,1.7042,1.7042,1.7033,1.7028,1.703,1.7018,1.7019,1.7036,1.7039,1.7042,1.7043,1.7009,0,0,0,0,0,1.7141,1.7138,1.712,1.7125,1.7121,1.7104,1.7101,1.709,1.7079,1.7075,1.7063,1.7052,1.7046,1.7042,1.7035,1.7038,1.7033,1.7041,1.7044,1.7046,1.7047,1.7046,1.7048,1.702,1.702,1.702,0,0,1.7154,1.7142,1.7142,1.713,1.7122,1.7119,1.7101,1.7099,1.7096,1.7074,1.7072,1.7062,1.7049,1.7049,1.7049,1.7042,1.7053,1.7047,1.7049,1.7049,1.7047,1.705,1.7052,1.7021,1.7021,1.7021,0,0,1.7175,1.7167,1.717,1.7161,1.7148,1.7137,1.7137,1.7121,1.7114,1.7111,1.7094,1.709,1.708,1.707,1.7064,1.708,1.7068,1.7079,1.7093,1.7092,1.7094,1.7096,1.71,1.7102,1.708,1.708,1.708,0,1.7193,1.7189,1.7172,1.7171,1.7165,1.7146,1.7147,1.7139,1.7125,1.7121,1.7114,1.7099,1.7089,1.7086,1.709,1.7086,1.7085,1.7081,1.7095,1.7097,1.7098,1.7102,1.7104,1.7081,1.7081,1.7081,1.7081,0,1.721,1.7207,1.721,1.7196,1.7191,1.7191,1.7174,1.717,1.7159,1.7148,1.7144,1.7131,1.712,1.7118,1.7108,1.7113,1.7109,1.7099,1.7086,1.7103,1.7106,1.7107,1.7083,1.7082,1.7082,1.7082,0,0,1.7249,1.7225,1.7226,1.7219,1.7203,1.7199,1.7197,1.7187,1.7184,1.7174,1.7171,1.7162,1.7152,1.7145,1.7132,1.7132,1.7143,1.7121,1.7121,1.7125,1.7146,1.7153,1.7155,1.7135,1.7135,1.7135,1.7147,0,1.7267,1.7263,1.7247,1.7248,1.7244,1.7224,1.7222,1.7211,1.72,1.7194,1.7181,1.7174,1.7162,1.7157,1.7156,1.7142,1.7147,1.7141,1.713,1.713,1.7133,1.7157,1.7165,1.7177,1.7148,1.7148,1.7148,0,1.7288,1.7279,1.7279,1.7261,1.7258,1.7257,1.7245,1.724,1.7226,1.7218,1.721,1.7196,1.7191,1.7179,1.7171,1.7168,1.7162,1.7154,1.7154,1.7152,1.714,1.7154,1.718,1.7182,1.715,1.715,1.715,0,1.7314,1.7302,1.73,1.7295,1.7274,1.7273,1.7264,1.725,1.7244,1.7234,1.7229,1.7218,1.7212,1.7203,1.7185,1.7179,1.7179,1.7166,1.717,1.7171,1.7171,1.7171,1.7195,1.7169,1.7169,1.7169,1.7169,0,1.7335,1.7336,1.7311,1.731,1.7309,1.7291,1.729,1.7279,1.7266,1.7261,1.7244,1.7239,1.7217,1.721,1.7196,1.719,1.7188,1.718,1.7176,1.7181,1.7182,1.7177,1.7175,1.7169,1.7169,1.7169,1.7169,0,1.7365,1.7349,1.7345,1.7325,1.732,1.732,1.7303,1.73,1.7287,1.7281,1.7278,1.7258,1.7248,1.723,1.7215,1.7206,1.7202,1.7196,1.7207,1.7205,1.7209,1.7209,1.723,1.7231,1.7205,1.7206,1.7206,0,1.7379,1.7379,1.7359,1.7354,1.7346,1.734,1.7333,1.7315,1.7309,1.7292,1.729,1.7279,1.7269,1.7254,1.7237,1.7224,1.7217,1.7226,1.7215,1.722,1.7216,1.7216,1.7215,1.7228,1.7228,1.7229,1.7229,0,1.7405,1.7397,1.7389,1.7378,1.7371,1.7361,1.7351,1.7348,1.7326,1.732,1.7309,1.7302,1.7286,1.7274,1.7259,1.7248,1.7234,1.7232,1.7232,1.7237,1.7243,1.7238,1.7212,1.7232,1.7231,1.7231,1.7231,1.7231,1.7427,1.7425,1.741,1.7401,1.7391,1.7381,1.7377,1.7364,1.7355,1.7341,1.733,1.732,1.7304,1.7282,1.7272,1.7263,1.7257,1.7257,1.7257,1.7257,1.7259,1.7245,1.726,1.726,1.726,1.726,1.726,0,1.7451,1.7441,1.7433,1.7418,1.7411,1.7399,1.7386,1.738,1.7372,1.7358,1.7348,1.7335,1.7324,1.7305,1.7291,1.7287,1.7281,1.7284,1.7284,1.7281,1.7266,1.7267,1.729,1.729,1.729,1.729,1.729,1.729,1.7463,1.7459,1.7449,1.7438,1.7427,1.7418,1.7411,1.7401,1.739,1.7377,1.7367,1.7355,1.7339,1.7324,1.7312,1.7306,1.7301,1.7307,1.73,1.7286,1.7283,1.728,1.7281,1.7307,1.7307,1.7316,1.7316,1.7316]}]]